Regional Weather Roundup
Issued by NWS Goodland, KS

Home | Current Version | Previous Version | Graphics & Text | Print | Product List | Glossary On
Versions: 1 2 3 4 5 6 7 8 9 10 11 12 13 14 15 16 17 18 19 20 21 22 23 24 25 26 27 28 29 30 31 32 33 34 35 36 37 38 39 40 41 42 43 44 45 46 47 48 49 50
000
ASUS43 KGLD 201259
RWRGLD

GOODLAND FORECAST AREA HOURLY WEATHER ROUNDUP
NATIONAL WEATHER SERVICE GOODLAND KS
700 AM MDT SUN AUG 20 2017

...OFFICIAL OBSERVATIONS...

CITY           SKY/WX    TMP DP  RH WIND       PRES   REMARKS
GOODLAND KS    CLEAR     65  54  67 W6        29.95R
HILL CITY KS   SUNNY     73  65  75 SW8       29.89R
IMPERIAL NEB   CLEAR     61  56  83 SW7       29.94R
MCCOOK NEB     SUNNY     63  58  83 SW7       29.88R
AKRON CO       CLEAR     62  44  51 W13       30.01R
BURLINGTON CO  CLEAR     61  54  77 W8        29.99R
LIMON CO       CLEAR     56  49  77 NW6       30.08R
$$

...UNOFFICIAL OBSERVATIONS...

CITY           SKY/WX    TMP DP  RH WIND       PRES   REMARKS
LENORA KS        N/A     69  32  25 SW6         N/A
NORTON KS      SUNNY     68  61  77 CALM      29.89R
TRENTON NEB      N/A     65  32  29 N6          N/A
KIT CARSON CO    N/A     59  53  79 CALM        N/A
YUMA CO        FAIR      61  37  41 W8        29.98R
$$



USA.gov is the U.S. government's official web portal to all federal, state and local government web resources and services.